TimeCST,TemperatureF,Dew PointF,Humidity,Sea Level PressureIn,VisibilityMPH,Wind Direction,Wind SpeedMPH,Gust SpeedMPH,PrecipitationIn,Events,Conditions,WindDirDegrees,DateUTC
12:15 AM,39.4,28.4,65,30.25,10.0,NW,20.7,25.3,N/A,,Scattered Clouds,310,2012-11-23 06:15:00
12:35 AM,39.2,27.5,63,30.26,10.0,WNW,31.1,39.1,N/A,,Mostly Cloudy,300,2012-11-23 06:35:00
12:55 AM,37.6,27.5,67,30.29,10.0,NW,28.8,38.0,N/A,,Mostly Cloudy,320,2012-11-23 06:55:00
1:15 AM,33.8,19.8,56,30.32,10.0,NW,38.0,48.3,N/A,,Overcast,320,2012-11-23 07:15:00
1:35 AM,32.4,16.0,51,30.33,10.0,NW,38.0,44.9,N/A,,Overcast,320,2012-11-23 07:35:00
1:55 AM,30.9,14.0,50,30.34,10.0,NW,32.2,40.3,N/A,,Scattered Clouds,310,2012-11-23 07:55:00
2:15 AM,30.0,15.3,54,30.35,10.0,NW,19.6,33.4,N/A,,Clear,310,2012-11-23 08:15:00
2:35 AM,29.1,16.3,59,30.36,10.0,NW,17.3,23.0,N/A,,Clear,320,2012-11-23 08:35:00
2:55 AM,28.8,16.9,61,30.37,10.0,NW,19.6,27.6,N/A,,Clear,310,2012-11-23 08:55:00
3:15 AM,28.0,15.8,60,30.37,10.0,NW,26.5,31.1,N/A,,Clear,310,2012-11-23 09:15:00
3:35 AM,27.5,15.8,61,30.39,10.0,NW,24.2,31.1,N/A,,Clear,310,2012-11-23 09:35:00
3:55 AM,27.3,15.8,62,30.39,10.0,NW,26.5,32.2,N/A,,Clear,320,2012-11-23 09:55:00
4:15 AM,27.0,15.6,62,30.40,10.0,NW,19.6,28.8,N/A,,Clear,320,2012-11-23 10:15:00
4:35 AM,26.6,15.8,64,30.40,10.0,NW,19.6,26.5,N/A,,Scattered Clouds,320,2012-11-23 10:35:00
4:55 AM,26.6,15.8,64,30.41,10.0,NW,24.2,31.1,N/A,,Scattered Clouds,310,2012-11-23 10:55:00
5:15 AM,25.7,15.8,66,30.41,10.0,NW,24.2,29.9,N/A,,Scattered Clouds,310,2012-11-23 11:15:00
5:35 AM,25.3,15.6,67,30.41,10.0,WNW,18.4,24.2,N/A,,Clear,300,2012-11-23 11:35:00
5:55 AM,24.6,15.6,69,30.42,10.0,NW,20.7,26.5,N/A,,Clear,310,2012-11-23 11:55:00
6:15 AM,23.9,15.3,70,30.42,10.0,NW,27.6,33.4,N/A,,Clear,310,2012-11-23 12:15:00
6:35 AM,23.7,14.5,68,30.44,10.0,NW,20.7,32.2,N/A,,Clear,320,2012-11-23 12:35:00
6:55 AM,23.0,14.4,70,30.44,10.0,NW,23.0,28.8,N/A,,Clear,310,2012-11-23 12:55:00
7:15 AM,22.8,14.5,71,30.45,10.0,NW,21.9,28.8,N/A,,Clear,310,2012-11-23 13:15:00
7:35 AM,22.3,14.5,72,30.45,10.0,WNW,18.4,25.3,N/A,,Clear,300,2012-11-23 13:35:00
7:55 AM,22.6,14.7,72,30.47,10.0,NW,18.4,25.3,N/A,,Clear,310,2012-11-23 13:55:00
8:15 AM,23.4,14.9,70,30.48,10.0,NW,24.2,28.8,N/A,,Clear,310,2012-11-23 14:15:00
8:35 AM,24.3,15.1,68,30.49,10.0,NW,20.7,27.6,N/A,,Clear,320,2012-11-23 14:35:00
8:55 AM,24.8,15.4,68,30.50,10.0,NW,25.3,-,N/A,,Clear,310,2012-11-23 14:55:00
9:15 AM,25.5,14.9,64,30.50,10.0,WNW,25.3,32.2,N/A,,Clear,300,2012-11-23 15:15:00
9:35 AM,26.2,14.7,62,30.50,10.0,NW,24.2,31.1,N/A,,Clear,320,2012-11-23 15:35:00
9:55 AM,27.1,13.8,57,30.50,10.0,NW,23.0,29.9,N/A,,Clear,320,2012-11-23 15:55:00
10:15 AM,27.5,13.8,56,30.51,10.0,NW,19.6,-,N/A,,Clear,320,2012-11-23 16:15:00
10:35 AM,28.8,14.0,54,30.51,10.0,NW,18.4,24.2,N/A,,Clear,310,2012-11-23 16:35:00
10:55 AM,29.7,13.5,51,30.51,10.0,WNW,19.6,26.5,N/A,,Clear,300,2012-11-23 16:55:00
11:15 AM,30.7,13.3,48,30.52,10.0,NW,21.9,27.6,N/A,,Clear,320,2012-11-23 17:15:00
11:35 AM,30.6,13.3,49,30.51,10.0,NW,20.7,27.6,N/A,,Clear,310,2012-11-23 17:35:00
11:55 AM,31.6,13.6,47,30.50,10.0,NW,17.3,-,N/A,,Clear,310,2012-11-23 17:55:00
12:15 PM,32.0,13.3,46,30.50,10.0,NW,19.6,26.5,N/A,,Clear,320,2012-11-23 18:15:00
12:35 PM,32.2,13.1,45,30.49,10.0,NW,20.7,24.2,N/A,,Clear,310,2012-11-23 18:35:00
12:55 PM,32.5,12.7,44,30.48,10.0,NW,20.7,26.5,N/A,,Clear,320,2012-11-23 18:55:00
1:15 PM,33.4,12.4,42,30.48,10.0,NW,15.0,20.7,N/A,,Clear,320,2012-11-23 19:15:00
1:35 PM,34.3,12.4,40,30.47,10.0,NW,15.0,18.4,N/A,,Clear,310,2012-11-23 19:35:00
1:55 PM,34.5,12.2,40,30.47,10.0,WNW,18.4,24.2,N/A,,Clear,300,2012-11-23 19:55:00
2:15 PM,34.7,12.0,39,30.46,10.0,NW,15.0,19.6,N/A,,Clear,320,2012-11-23 20:15:00
2:35 PM,34.3,11.5,39,30.46,10.0,NW,19.6,24.2,N/A,,Clear,320,2012-11-23 20:35:00
2:55 PM,34.3,10.8,38,30.46,10.0,NW,13.8,-,N/A,,Clear,320,2012-11-23 20:55:00
3:15 PM,34.7,11.3,38,30.46,10.0,WNW,12.7,-,N/A,,Clear,300,2012-11-23 21:15:00
3:35 PM,34.5,10.6,37,30.46,10.0,NW,13.8,-,N/A,,Clear,320,2012-11-23 21:35:00
3:55 PM,33.8,10.4,38,30.46,10.0,WNW,15.0,-,N/A,,Clear,300,2012-11-23 21:55:00
4:15 PM,33.3,10.0,38,30.45,10.0,NW,13.8,-,N/A,,Clear,310,2012-11-23 22:15:00
4:35 PM,32.2,9.5,39,30.45,10.0,NW,11.5,-,N/A,,Clear,310,2012-11-23 22:35:00
4:55 PM,30.6,10.4,43,30.45,10.0,NW,9.2,-,N/A,,Clear,310,2012-11-23 22:55:00
5:15 PM,28.6,10.8,47,30.45,10.0,NW,6.9,-,N/A,,Clear,310,2012-11-23 23:15:00
5:35 PM,27.3,10.8,50,30.45,10.0,NW,6.9,-,N/A,,Clear,310,2012-11-23 23:35:00
5:55 PM,26.6,10.4,51,30.44,10.0,NW,5.8,-,N/A,,Clear,310,2012-11-23 23:55:00
6:15 PM,24.8,10.2,54,30.45,10.0,NW,3.5,-,N/A,,Clear,310,2012-11-24 00:15:00
6:35 PM,25.0,10.0,53,30.45,10.0,NW,4.6,-,N/A,,Clear,310,2012-11-24 00:35:00
6:55 PM,22.3,10.0,59,30.44,10.0,WNW,4.6,-,N/A,,Clear,300,2012-11-24 00:55:00
7:15 PM,22.5,10.4,60,30.44,10.0,WNW,4.6,-,N/A,,Clear,290,2012-11-24 01:15:00
7:35 PM,22.1,10.2,60,30.44,10.0,WNW,3.5,-,N/A,,Clear,290,2012-11-24 01:35:00
7:55 PM,22.5,10.4,60,30.43,10.0,Calm,Calm,-,N/A,,Clear,0,2012-11-24 01:55:00
8:15 PM,23.0,10.4,59,30.43,10.0,Calm,Calm,-,N/A,,Clear,0,2012-11-24 02:15:00
8:35 PM,22.6,9.9,58,30.43,10.0,Calm,Calm,-,N/A,,Clear,0,2012-11-24 02:35:00
8:55 PM,20.8,9.9,63,30.43,10.0,Calm,Calm,-,N/A,,Clear,0,2012-11-24 02:55:00
9:15 PM,21.7,10.6,62,30.42,10.0,Calm,Calm,-,N/A,,Clear,0,2012-11-24 03:15:00
9:35 PM,23.0,10.8,60,30.41,10.0,NNE,3.5,-,N/A,,Clear,30,2012-11-24 03:35:00
9:55 PM,20.1,10.9,68,30.40,10.0,Calm,Calm,-,N/A,,Clear,0,2012-11-24 03:55:00
10:15 PM,21.0,12.2,69,30.40,10.0,Calm,Calm,-,N/A,,Clear,0,2012-11-24 04:15:00
10:35 PM,19.6,11.3,70,30.39,10.0,Calm,Calm,-,N/A,,Clear,0,2012-11-24 04:35:00
10:55 PM,20.3,11.3,68,30.39,10.0,Calm,Calm,-,N/A,,Clear,0,2012-11-24 04:55:00
11:15 PM,21.9,11.8,65,30.39,10.0,Calm,Calm,-,N/A,,Clear,0,2012-11-24 05:15:00
11:35 PM,19.2,11.7,72,30.39,10.0,Calm,Calm,-,N/A,,Clear,0,2012-11-24 05:35:00
11:55 PM,20.3,11.7,69,30.38,10.0,Calm,Calm,-,N/A,,Clear,0,2012-11-24 05:55:00